Find Kosmos-2205

NORAD ID: 22057 Int'l Des: 1992-047 Owner: VVSR Country: RU Constellation: GLONASS operational
MEOCIRCULAR

实时位置

正在加载3D地球...

关于 Kosmos-2205

正在加载描述...

即将过境

Passes for default location (London). Set your location on the main map for personalized predictions.

高度历史

Loading altitude history...

两行轨道根数

1 22057U 92047B 26101.83899627 .00000011 00000-0 00000-0 0 9992
2 22057 64.2014 304.6302 0016334 347.3782 9.3806 2.13102728262118
Epoch: Apr 11, 2026 • Age: 117 hours

当前状态

高度 19170.0 km
速度 3.95 km/s
星下点 33.96°N, 1.28°E
发射日期 Jul 30, 1992
运行时间 33.7 years
类型 other

技术详情

分类 Payload
质量 1300.00 kg
干质量 1200.00 kg
总质量 1300.00 kg
长度 4.00 m
直径 1.50 m
跨度 7.80 m
形状 Cyl + Ant + 2 Pan
制造商 POL
平台类型 Uragan
阶段状态 In Orbit
所有者/国家 VVSR/RU

Most Searched